Hourly Weather Ashtarak

Today, 26 September, Saturday

Time Temperature Precipitation Wind Pressure Humidity
00:00 +19°C° 0.3 mm 2 mps 657 mmHg 59%
01:00 +19°C° 0.2 mm 2 mps 657 mmHg 62%
02:00 +18°C° 0.2 mm 2 mps 657 mmHg 64%
03:00 +18°C° 0 mm 1 mps 656 mmHg 68%
04:00 +18°C° 0 mm 1 mps 656 mmHg 68%
05:00 +18°C° 0 mm 1 mps 656 mmHg 69%
06:00 +18°C° 0 mm 1 mps 656 mmHg 70%
07:00 +19°C° 0 mm 1 mps 657 mmHg 63%
08:00 +21°C° 0 mm 1 mps 657 mmHg 57%
09:00 +23°C° 0 mm 1 mps 658 mmHg 51%
10:00 +24°C° 0.3 mm 1 mps 658 mmHg 48%
11:00 +25°C° 0.3 mm 2 mps 658 mmHg 44%
12:00 +26°C° 0.3 mm 2 mps 658 mmHg 41%
13:00 +26°C° 0.1 mm 2 mps 658 mmHg 38%
14:00 +27°C° 0.1 mm 2 mps 657 mmHg 36%
15:00 +28°C° 0.1 mm 2 mps 657 mmHg 33%
16:00 +26°C° 0.2 mm 2 mps 657 mmHg 38%
17:00 +25°C° 0.2 mm 1 mps 657 mmHg 42%
18:00 +23°C° 0.2 mm 1 mps 657 mmHg 47%
19:00 +21°C° 1 mm 2 mps 657 mmHg 52%
20:00 +20°C° 1 mm 3 mps 657 mmHg 58%
21:00 +20°C° 1 mm 3 mps 658 mmHg 63%
22:00 +19°C° 0.1 mm 3 mps 658 mmHg 64%
23:00 +19°C° 0.1 mm 2 mps 658 mmHg 64%

Tomorrow, 27 September, Sunday

Time Temperature Precipitation Wind Pressure Humidity
00:00 +18°C° 0.1 mm 2 mps 658 mmHg 65%
01:00 +19°C° 0 mm 1 mps 658 mmHg 65%
02:00 +19°C° 0 mm 1 mps 658 mmHg 65%
03:00 +18°C° 0 mm 1 mps 658 mmHg 65%
04:00 +18°C° 0 mm 1 mps 658 mmHg 66%
05:00 +18°C° 0 mm 1 mps 658 mmHg 67%
06:00 +16°C° 0 mm 1 mps 658 mmHg 68%
07:00 +19°C° 0 mm 1 mps 659 mmHg 62%
08:00 +21°C° 0 mm 1 mps 659 mmHg 55%
09:00 +23°C° 0 mm 1 mps 660 mmHg 49%
10:00 +24°C° 0 mm 1 mps 660 mmHg 46%
11:00 +25°C° 0 mm 1 mps 661 mmHg 44%
12:00 +26°C° 0 mm 1 mps 661 mmHg 41%
13:00 +26°C° 0 mm 1 mps 661 mmHg 38%
14:00 +27°C° 0 mm 1 mps 661 mmHg 35%
15:00 +28°C° 0 mm 1 mps 661 mmHg 32%
16:00 +26°C° 0 mm 1 mps 661 mmHg 37%
17:00 +25°C° 0 mm 2 mps 661 mmHg 42%
18:00 +23°C° 0 mm 2 mps 661 mmHg 47%
19:00 +21°C° 0 mm 2 mps 661 mmHg 50%
20:00 +21°C° 0 mm 3 mps 661 mmHg 54%
21:00 +20°C° 0 mm 3 mps 662 mmHg 57%
22:00 +19°C° 0 mm 3 mps 662 mmHg 58%
23:00 +19°C° 0 mm 3 mps 662 mmHg 59%

Day after tomorrow, 28 September, Monday

Time Temperature Precipitation Wind Pressure Humidity
00:00 +18°C° 0 mm 3 mps 662 mmHg 60%
01:00 +18°C° 0 mm 2 mps 662 mmHg 60%
02:00 +17°C° 0 mm 2 mps 662 mmHg 60%
03:00 +17°C° 0 mm 2 mps 662 mmHg 60%
04:00 +17°C° 0 mm 2 mps 662 mmHg 60%
05:00 +16°C° 0 mm 2 mps 662 mmHg 59%
06:00 +16°C° 0 mm 2 mps 662 mmHg 59%
07:00 +18°C° 0 mm 2 mps 663 mmHg 53%
08:00 +21°C° 0 mm 1 mps 664 mmHg 47%
09:00 +23°C° 0 mm 1 mps 664 mmHg 42%
10:00 +24°C° 0 mm 1 mps 664 mmHg 39%
11:00 +25°C° 0 mm 1 mps 664 mmHg 36%
12:00 +26°C° 0 mm 2 mps 664 mmHg 33%
13:00 +26°C° 0 mm 2 mps 664 mmHg 33%
14:00 +27°C° 0 mm 1 mps 664 mmHg 33%
15:00 +27°C° 0 mm 1 mps 663 mmHg 33%
16:00 +25°C° 0 mm 2 mps 663 mmHg 39%
17:00 +24°C° 0 mm 2 mps 663 mmHg 46%
18:00 +21°C° 0 mm 2 mps 663 mmHg 53%
19:00 +20°C° 0 mm 3 mps 663 mmHg 55%
20:00 +19°C° 0 mm 3 mps 663 mmHg 56%
21:00 +19°C° 0 mm 3 mps 663 mmHg 58%
22:00 +18°C° 0 mm 3 mps 663 mmHg 59%
23:00 +17°C° 0 mm 3 mps 663 mmHg 61%

29 September, Tuesday

Time Temperature Precipitation Wind Pressure Humidity
00:00 +17°C° 0 mm 3 mps 663 mmHg 62%
01:00 +16°C° 0 mm 2 mps 662 mmHg 63%
02:00 +16°C° 0 mm 2 mps 662 mmHg 64%
03:00 +15°C° 0 mm 2 mps 662 mmHg 64%
04:00 +15°C° 0 mm 2 mps 662 mmHg 65%
05:00 +15°C° 0 mm 2 mps 662 mmHg 67%
06:00 +14°C° 0 mm 2 mps 662 mmHg 68%
07:00 +16°C° 0 mm 1 mps 662 mmHg 62%
08:00 +19°C° 0 mm 1 mps 663 mmHg 56%
09:00 +20°C° 0 mm 1 mps 663 mmHg 50%
10:00 +22°C° 0 mm 1 mps 663 mmHg 47%
11:00 +23°C° 0 mm 2 mps 663 mmHg 44%
12:00 +24°C° 0 mm 2 mps 663 mmHg 41%
13:00 +24°C° 0 mm 2 mps 662 mmHg 40%
14:00 +25°C° 0 mm 2 mps 662 mmHg 39%
15:00 +25°C° 0 mm 2 mps 662 mmHg 38%
16:00 +24°C° 0 mm 1 mps 661 mmHg 43%
17:00 +22°C° 0 mm 1 mps 661 mmHg 47%
18:00 +21°C° 0 mm 1 mps 660 mmHg 52%
19:00 +20°C° 0 mm 1 mps 660 mmHg 55%
20:00 +18°C° 0 mm 2 mps 661 mmHg 58%
21:00 +18°C° 0 mm 2 mps 661 mmHg 61%
22:00 +17°C° 0 mm 2 mps 660 mmHg 61%
23:00 +17°C° 0 mm 2 mps 660 mmHg 62%

30 September, Wednesday

Time Temperature Precipitation Wind Pressure Humidity
00:00 +16°C° 0 mm 2 mps 660 mmHg 62%
01:00 +16°C° 0 mm 2 mps 659 mmHg 63%
02:00 +15°C° 0 mm 1 mps 659 mmHg 64%
03:00 +15°C° 0 mm 1 mps 659 mmHg 65%
04:00 +15°C° 0 mm 1 mps 658 mmHg 66%
05:00 +14°C° 0 mm 1 mps 658 mmHg 67%
06:00 +14°C° 0 mm 1 mps 658 mmHg 68%
07:00 +16°C° 0 mm 1 mps 658 mmHg 61%
08:00 +18°C° 0 mm 1 mps 659 mmHg 55%
09:00 +20°C° 0 mm 1 mps 659 mmHg 48%
10:00 +20°C° 0 mm 2 mps 659 mmHg 45%
11:00 +23°C° 0 mm 2 mps 658 mmHg 41%
12:00 +24°C° 0 mm 2 mps 658 mmHg 38%
13:00 +24°C° 0 mm 2 mps 658 mmHg 36%
14:00 +25°C° 0 mm 2 mps 658 mmHg 35%
15:00 +25°C° 0 mm 2 mps 657 mmHg 34%
16:00 +24°C° 0 mm 2 mps 657 mmHg 37%
17:00 +22°C° 0 mm 1 mps 657 mmHg 41%
18:00 +21°C° 0 mm 1 mps 656 mmHg 45%
19:00 +20°C° 0 mm 1 mps 657 mmHg 49%
20:00 +18°C° 0 mm 2 mps 657 mmHg 54%
21:00 +17°C° 0 mm 2 mps 657 mmHg 58%
22:00 +17°C° 0 mm 2 mps 657 mmHg 57%
23:00 +17°C° 0 mm 2 mps 657 mmHg 57%

1 October, Thursday

Time Temperature Precipitation Wind Pressure Humidity
00:00 +17°C° 0 mm 2 mps 657 mmHg 56%
01:00 +16°C° 0 mm 2 mps 657 mmHg 57%
02:00 +16°C° 0 mm 2 mps 657 mmHg 58%
03:00 +16°C° 0 mm 1 mps 656 mmHg 58%
04:00 +15°C° 0 mm 1 mps 656 mmHg 59%
05:00 +15°C° 0 mm 1 mps 656 mmHg 60%
06:00 +15°C° 0 mm 1 mps 656 mmHg 60%
07:00 +16°C° 0 mm 1 mps 657 mmHg 54%
08:00 +19°C° 0 mm 1 mps 657 mmHg 49%
09:00 +20°C° 0 mm 2 mps 658 mmHg 43%
10:00 +21°C° 0 mm 2 mps 658 mmHg 40%
11:00 +24°C° 0 mm 2 mps 658 mmHg 37%
12:00 +25°C° 0 mm 2 mps 658 mmHg 34%
13:00 +25°C° 0 mm 2 mps 657 mmHg 33%
14:00 +26°C° 0 mm 2 mps 657 mmHg 32%
15:00 +26°C° 0 mm 2 mps 657 mmHg 31%
16:00 +24°C° 0.1 mm 2 mps 657 mmHg 35%
17:00 +23°C° 0.1 mm 2 mps 657 mmHg 39%
18:00 +22°C° 0.1 mm 1 mps 657 mmHg 43%
19:00 +21°C° 0.1 mm 1 mps 657 mmHg 44%
20:00 +20°C° 0.1 mm 2 mps 657 mmHg 45%
21:00 +20°C° 0.1 mm 2 mps 658 mmHg 46%
22:00 +19°C° 0.1 mm 2 mps 658 mmHg 49%
23:00 +18°C° 0.1 mm 2 mps 658 mmHg 52%
Show more